.
WxDataArchive / Data Records for 2007-01-21
2007-01-20 January 2007 2007-01-22

Data Records for Sunday, 21 January 2007

Time	Temp	Chill	HIndex	Humid	Dewpt	 Wind 	HiWind	WindDir	Rain 	Barom 
-----	----	-----	------	-----	-----	------	------	-------	-----	----- 
00:00	23.8	23.8	23.8	74	16.7	2	4	112	0.00	30.313 
00:05	23.8	23.8	23.8	74	16.7	2	4	112	0.00	30.313 
00:10	23.9	23.9	23.9	74	16.8	2	5	112	0.00	30.313 
00:15	23.9	23.9	23.9	74	16.8	1	5	112	0.00	30.326 
00:20	23.9	23.9	23.9	74	16.8	2	4	112	0.00	30.314 
00:25	23.9	23.9	23.9	74	16.8	2	5	112	0.00	30.313 
00:30	23.9	23.9	23.9	74	16.8	1	4	112	0.00	30.313 
00:35	23.9	23.9	23.9	74	16.8	3	7	112	0.00	30.311 
00:40	23.9	23.9	23.9	74	16.8	2	5	112	0.00	30.310 
00:45	24.1	24.1	24.1	74	17.0	2	5	112	0.00	30.311 
00:50	24.1	24.1	24.1	74	17.0	2	6	112	0.00	30.311 
00:55	24.1	24.1	24.1	73	16.7	2	5	112	0.00	30.303 
01:00	24.1	24.1	24.1	73	16.7	3	5	90	0.00	30.304 
01:05	24.1	24.1	24.1	73	16.7	3	6	112	0.00	30.298 
01:10	24.1	24.1	24.1	73	16.7	3	7	112	0.00	30.297 
01:15	24.1	24.1	24.1	73	16.7	3	6	112	0.00	30.295 
01:20	24.1	19.0	24.1	73	16.7	4	7	112	0.00	30.296 
01:25	24.1	24.1	24.1	72	16.4	3	7	90	0.00	30.295 
01:30	24.1	24.1	24.1	73	16.7	2	5	112	0.00	30.294 
01:35	24.1	24.1	24.1	73	16.7	2	5	112	0.00	30.294 
01:40	24.1	24.1	24.1	73	16.7	2	4	112	0.00	30.295 
01:45	24.1	24.1	24.1	73	16.7	2	4	112	0.00	30.294 
01:50	24.1	24.1	24.1	73	16.7	3	9	112	0.00	30.289 
01:55	24.1	24.1	24.1	73	16.7	3	8	112	0.00	30.282 
02:00	24.1	24.1	24.1	73	16.7	3	7	112	0.00	30.283 
02:05	24.1	24.1	24.1	73	16.7	2	7	112	0.00	30.279 
02:10	24.1	24.1	24.1	73	16.7	2	4	112	0.00	30.277 
02:15	24.1	24.1	24.1	73	16.7	2	5	112	0.00	30.278 
02:20	24.1	24.1	24.1	73	16.7	3	6	90	0.00	30.277 
02:25	24.1	24.1	24.1	73	16.7	3	7	112	0.00	30.275 
02:30	24.1	24.1	24.1	73	16.7	3	6	112	0.00	30.269 
02:35	24.1	24.1	24.1	73	16.7	3	7	90	0.00	30.266 
02:40	24.1	24.1	24.1	73	16.7	2	6	90	0.00	30.269 
02:45	24.1	19.0	24.1	73	16.7	4	8	112	0.00	30.268 
02:50	24.1	24.1	24.1	73	16.7	3	6	112	0.00	30.275 
02:55	24.1	24.1	24.1	73	16.7	3	7	112	0.00	30.276 
03:00	24.1	24.1	24.1	73	16.7	3	6	90	0.00	30.270 
03:05	24.1	24.1	24.1	73	16.7	2	5	112	0.00	30.272 
03:10	24.1	24.1	24.1	73	16.7	3	10	112	0.00	30.270 
03:15	24.1	24.1	24.1	73	16.7	3	6	112	0.00	30.274 
03:20	24.1	24.1	24.1	73	16.7	3	6	112	0.00	30.265 
03:25	24.1	24.1	24.1	73	16.7	3	9	112	0.00	30.263 
03:30	24.1	24.1	24.1	73	16.7	3	10	112	0.00	30.258 
03:35	24.1	24.1	24.1	73	16.7	3	7	112	0.00	30.258 
03:40	24.1	19.0	24.1	73	16.7	4	9	112	0.00	30.256 
03:45	24.2	24.2	24.2	73	16.8	2	7	112	0.00	30.252 
03:50	24.2	24.2	24.2	73	16.8	3	7	112	0.00	30.247 
03:55	24.2	19.1	24.2	73	16.8	4	9	112	0.00	30.246 
04:00	24.2	19.1	24.2	73	16.8	4	7	112	0.00	30.243 
04:05	24.2	19.1	24.2	73	16.8	4	10	112	0.00	30.242 
04:10	24.2	19.1	24.2	73	16.8	4	10	90	0.00	30.238 
04:15	24.2	19.1	24.2	73	16.8	4	8	90	0.00	30.236 
04:20	24.2	17.9	24.2	73	16.8	5	9	112	0.00	30.231 
04:25	24.2	24.2	24.2	74	17.1	3	6	112	0.00	30.225 
04:30	24.2	24.2	24.2	74	17.1	3	6	112	0.00	30.221 
04:35	24.2	19.1	24.2	74	17.1	4	7	112	0.00	30.219 
04:40	24.2	24.2	24.2	74	17.1	3	9	112	0.00	30.216 
04:45	24.2	24.2	24.2	74	17.1	3	7	112	0.00	30.217 
04:50	24.2	17.9	24.2	74	17.1	5	10	90	0.00	30.216 
04:55	24.2	24.2	24.2	74	17.1	3	7	112	0.00	30.215 
05:00	24.2	24.2	24.2	74	17.1	3	5	112	0.00	30.216 
05:05	24.4	24.4	24.4	75	17.6	3	10	90	0.00	30.218 
05:10	24.4	24.4	24.4	74	17.3	3	7	112	0.00	30.214 
05:15	24.4	24.4	24.4	75	17.6	3	7	112	0.00	30.212 
05:20	24.4	19.3	24.4	75	17.6	4	9	112	0.00	30.203 
05:25	24.4	24.4	24.4	75	17.6	3	5	112	0.00	30.203 
05:30	24.4	24.4	24.4	75	17.6	3	7	112	0.00	30.202 
05:35	24.4	19.3	24.4	75	17.6	4	7	112	0.00	30.203 
05:40	24.4	24.4	24.4	75	17.6	3	9	112	0.00	30.205 
05:45	24.5	19.4	24.5	75	17.7	4	8	112	0.00	30.202 
05:50	24.5	24.5	24.5	75	17.7	3	8	112	0.00	30.201 
05:55	24.5	24.5	24.5	75	17.7	2	6	90	0.00	30.200 
06:00	24.5	24.5	24.5	75	17.7	2	6	112	0.00	30.200 
06:05	24.5	24.5	24.5	75	17.7	3	7	112	0.00	30.203 
06:10	24.7	24.7	24.7	75	17.9	3	7	112	0.00	30.200 
06:15	24.7	24.7	24.7	75	17.9	3	6	112	0.00	30.190 
06:20	24.7	19.6	24.7	75	17.9	4	9	112	0.00	30.189 
06:25	24.7	24.7	24.7	75	17.9	3	6	90	0.00	30.190 
06:30	24.7	24.7	24.7	75	17.9	2	6	112	0.00	30.189 
06:35	24.7	24.7	24.7	75	17.9	2	5	112	0.00	30.188 
06:40	24.7	24.7	24.7	75	17.9	3	6	112	0.00	30.190 
06:45	24.7	24.7	24.7	76	18.2	3	6	112	0.00	30.197 
06:50	24.7	24.7	24.7	78	18.8	2	4	112	0.00	30.201 
06:55	24.4	24.4	24.4	81	19.4	3	7	112	0.00	30.196 
07:00	24.1	24.1	24.1	84	20.0	3	6	112	0.00	30.191 
07:05	23.9	23.9	23.9	85	20.1	3	7	90	0.00	30.186 
07:10	23.8	23.8	23.8	86	20.2	3	7	112	0.00	30.186 
07:15	23.6	18.4	23.6	87	20.3	4	6	112	0.00	30.186 
07:20	23.6	23.6	23.6	88	20.6	3	6	90	0.00	30.184 
07:25	23.5	23.5	23.5	88	20.5	3	5	112	0.00	30.184 
07:30	23.5	23.5	23.5	89	20.7	2	5	90	0.00	30.187 
07:35	23.5	23.5	23.5	89	20.7	3	7	90	0.00	30.189 
07:40	23.5	23.5	23.5	89	20.7	2	4	112	0.00	30.191 
07:45	23.5	23.5	23.5	89	20.7	2	5	112	0.00	30.197 
07:50	23.5	23.5	23.5	89	20.7	3	5	112	0.00	30.196 
07:55	23.5	23.5	23.5	89	20.7	3	5	112	0.00	30.193 
08:00	23.5	23.5	23.5	89	20.7	3	6	112	0.00	30.201 
08:05	23.5	23.5	23.5	90	21.0	3	7	112	0.00	30.195 
08:10	23.5	18.3	23.5	90	21.0	4	9	112	0.00	30.183 
08:15	23.5	23.5	23.5	90	21.0	3	6	112	0.00	30.183 
08:20	23.5	23.5	23.5	90	21.0	3	7	112	0.00	30.173 
08:25	23.5	18.3	23.5	90	21.0	4	7	112	0.00	30.166 
08:30	23.5	18.3	23.5	90	21.0	4	9	112	0.00	30.160 
08:35	23.5	17.1	23.5	90	21.0	5	11	90	0.00	30.138 
08:40	23.3	15.9	23.3	90	20.8	6	10	112	0.00	30.139 
08:45	23.3	15.9	23.3	90	20.8	6	13	112	0.00	30.125 
08:50	23.3	16.9	23.3	90	20.8	5	10	112	0.00	30.125 
08:55	23.3	16.9	23.3	90	20.8	5	9	112	0.00	30.128 
09:00	23.3	16.9	23.3	90	20.8	5	11	112	0.00	30.134 
09:05	23.3	18.0	23.3	90	20.8	4	7	112	0.00	30.130 
09:10	23.5	18.3	23.5	90	21.0	4	8	112	0.00	30.122 
09:15	23.5	17.1	23.5	90	21.0	5	10	112	0.00	30.110 
09:20	23.3	15.0	23.3	89	20.5	7	13	112	0.00	30.109 
09:25	23.3	16.9	23.3	90	20.8	5	11	112	0.00	30.098 
09:30	23.5	17.1	23.5	90	21.0	5	12	112	0.00	30.097 
09:35	23.5	16.1	23.5	90	21.0	6	11	112	0.00	30.099 
09:40	23.5	16.1	23.5	90	21.0	6	12	90	0.00	30.103 
09:45	23.6	17.2	23.6	90	21.1	5	12	112	0.00	30.105 
09:50	23.6	17.2	23.6	90	21.1	5	10	112	0.00	30.107 
09:55	23.8	18.6	23.8	90	21.3	4	10	112	0.00	30.102 
10:00	23.9	17.6	23.9	90	21.4	5	10	112	0.00	30.100 
10:05	24.1	19.0	24.1	90	21.6	4	9	112	0.00	30.093 
10:10	24.2	24.2	24.2	90	21.7	3	10	112	0.00	30.094 
10:15	24.2	19.1	24.2	90	21.7	4	11	112	0.00	30.094 
10:20	24.2	17.9	24.2	89	21.4	5	10	112	0.00	30.090 
10:25	24.4	18.1	24.4	89	21.6	5	10	112	0.00	30.092 
10:30	24.4	19.3	24.4	89	21.6	4	10	112	0.00	30.090 
10:35	24.4	18.1	24.4	88	21.4	5	13	112	0.00	30.081 
10:40	24.5	19.4	24.5	89	21.7	4	9	112	0.00	30.075 
10:45	24.7	19.6	24.7	88	21.7	4	12	112	0.00	30.070 
10:50	24.7	18.5	24.7	88	21.7	5	11	112	0.00	30.061 
10:55	24.8	18.6	24.8	88	21.8	5	11	112	0.00	30.059 
11:00	24.8	19.8	24.8	88	21.8	4	7	112	0.00	30.070 
11:05	25.0	25.0	25.0	87	21.7	3	7	112	0.00	30.069 
11:10	25.1	25.1	25.1	87	21.8	3	6	112	0.00	30.076 
11:15	25.1	25.1	25.1	87	21.8	3	8	112	0.00	30.077 
11:20	25.3	25.3	25.3	87	22.0	3	6	90	0.00	30.076 
11:25	25.3	25.3	25.3	86	21.7	3	8	112	0.00	30.076 
11:30	25.3	25.3	25.3	85	21.4	3	10	112	0.00	30.074 
11:35	25.4	25.4	25.4	85	21.5	3	9	112	0.00	30.069 
11:40	25.4	25.4	25.4	85	21.5	3	9	112	0.00	30.066 
11:45	25.6	20.7	25.6	85	21.7	4	10	112	0.00	30.059 
11:50	25.6	20.7	25.6	85	21.7	4	10	112	0.00	30.057 
11:55	25.6	20.7	25.6	86	22.0	4	10	112	0.00	30.055 
12:00	25.7	25.7	25.7	87	22.4	3	6	112	0.00	30.048 
12:05	25.7	25.7	25.7	88	22.6	3	8	112	0.00	30.043 
12:10	25.7	25.7	25.7	88	22.6	3	6	112	0.00	30.043 
12:15	25.7	25.7	25.7	89	22.9	3	6	112	0.00	30.041 
12:20	25.8	25.8	25.8	89	23.0	3	9	90	0.00	30.035 
12:25	25.8	25.8	25.8	89	23.0	3	9	112	0.00	30.029 
12:30	25.7	20.8	25.7	90	23.2	4	9	112	0.00	30.025 
12:35	25.7	25.7	25.7	90	23.2	3	9	112	0.00	30.021 
12:40	25.8	25.8	25.8	91	23.5	2	6	112	0.00	30.016 
12:45	25.8	25.8	25.8	90	23.3	3	10	112	0.00	30.012 
12:50	26.0	26.0	26.0	91	23.7	3	6	112	0.00	30.011 
12:55	25.8	25.8	25.8	91	23.5	3	7	112	0.00	30.008 
13:00	25.7	20.8	25.7	90	23.2	4	10	112	0.00	30.007 
13:05	25.8	25.8	25.8	91	23.5	2	5	90	0.00	30.002 
13:10	26.0	26.0	26.0	91	23.7	3	11	112	0.00	29.997 
13:15	25.8	20.9	25.8	91	23.5	4	9	112	0.00	29.995 
13:20	26.0	26.0	26.0	92	24.0	3	7	112	0.00	29.993 
13:25	26.0	26.0	26.0	92	24.0	3	7	112	0.00	29.987 
13:30	26.0	26.0	26.0	92	24.0	3	7	112	0.00	29.986 
13:35	26.1	26.1	26.1	92	24.1	3	6	112	0.00	29.979 
13:40	26.0	21.1	26.0	92	24.0	4	10	112	0.00	29.978 
13:45	26.0	26.0	26.0	92	24.0	3	6	112	0.00	29.977 
13:50	26.1	26.1	26.1	92	24.1	3	7	112	0.00	29.973 
13:55	26.3	26.3	26.3	92	24.3	2	5	112	0.00	29.971 
14:00	26.4	26.4	26.4	92	24.4	3	6	112	0.00	29.968 
14:05	26.4	26.4	26.4	92	24.4	2	5	112	0.00	29.964 
14:10	26.4	26.4	26.4	92	24.4	2	6	112	0.00	29.963 
14:15	26.6	26.6	26.6	92	24.6	3	6	112	0.00	29.961 
14:20	26.7	26.7	26.7	92	24.7	1	2	112	0.00	29.959 
14:25	26.9	26.9	26.9	92	24.9	1	3	112	0.00	29.959 
14:30	26.9	26.9	26.9	92	24.9	2	4	112	0.00	29.954 
14:35	26.7	26.7	26.7	92	24.7	3	6	112	0.00	29.950 
14:40	26.7	26.7	26.7	92	24.7	3	7	112	0.00	29.948 
14:45	26.7	26.7	26.7	92	24.7	2	6	112	0.00	29.948 
14:50	26.9	26.9	26.9	92	24.9	2	4	112	0.00	29.947 
14:55	27.0	27.0	27.0	92	25.0	2	5	112	0.00	29.946 
15:00	27.0	27.0	27.0	92	25.0	1	4	112	0.00	29.942 
15:05	27.2	27.2	27.2	92	25.2	2	6	112	0.00	29.937 
15:10	27.2	27.2	27.2	92	25.2	2	4	112	0.00	29.934 
15:15	27.3	27.3	27.3	92	25.3	2	5	112	0.00	29.932 
15:20	27.3	27.3	27.3	92	25.3	1	3	112	0.00	29.930 
15:25	27.5	27.5	27.5	92	25.5	2	5	112	0.00	29.927 
15:30	27.5	27.5	27.5	92	25.5	3	5	112	0.00	29.923 
15:35	27.5	27.5	27.5	92	25.5	2	4	112	0.00	29.925 
15:40	27.6	27.6	27.6	92	25.6	2	6	90	0.00	29.923 
15:45	27.6	27.6	27.6	92	25.6	2	3	112	0.00	29.923 
15:50	27.6	27.6	27.6	92	25.6	3	5	112	0.00	29.925 
15:55	27.6	27.6	27.6	92	25.6	2	5	112	0.00	29.925 
16:00	27.6	27.6	27.6	92	25.6	2	5	90	0.00	29.928 
16:05	27.6	27.6	27.6	92	25.6	2	4	112	0.00	29.928 
16:10	27.6	27.6	27.6	93	25.8	1	5	112	0.00	29.927 
16:15	27.6	27.6	27.6	93	25.8	1	4	112	0.00	29.928 
16:20	27.6	27.6	27.6	93	25.8	2	4	112	0.00	29.926 
16:25	27.8	27.8	27.8	93	26.0	1	2	112	0.00	29.924 
16:30	27.8	27.8	27.8	93	26.0	2	4	112	0.00	29.920 
16:35	27.8	27.8	27.8	93	26.0	2	4	112	0.00	29.917 
16:40	27.8	27.8	27.8	94	26.3	1	3	112	0.00	29.916 
16:45	27.9	27.9	27.9	94	26.4	2	3	112	0.00	29.915 
16:50	27.9	27.9	27.9	94	26.4	1	4	90	0.00	29.914 
16:55	27.9	27.9	27.9	94	26.4	1	3	135	0.00	29.913 
17:00	28.1	28.1	28.1	94	26.6	2	3	135	0.00	29.914 
17:05	28.1	28.1	28.1	94	26.6	1	3	112	0.00	29.914 
17:10	28.1	28.1	28.1	94	26.6	1	3	112	0.00	29.914 
17:15	28.1	28.1	28.1	94	26.6	1	3	112	0.00	29.912 
17:20	28.1	28.1	28.1	94	26.6	1	2	112	0.00	29.910 
17:25	28.2	28.2	28.2	94	26.7	1	3	112	0.00	29.911 
17:30	28.2	28.2	28.2	94	26.7	1	2	112	0.00	29.912 
17:35	28.2	28.2	28.2	94	26.7	0	1	112	0.00	29.912 
17:40	28.2	28.2	28.2	94	26.7	1	2	112	0.00	29.913 
17:45	28.2	28.2	28.2	95	27.0	1	3	112	0.00	29.913 
17:50	28.2	28.2	28.2	95	27.0	0	1	112	0.00	29.913 
17:55	28.4	28.4	28.4	95	27.2	0	1	112	0.00	29.914 
18:00	28.4	28.4	28.4	95	27.2	0	1	112	0.00	29.913 
18:05	28.2	28.2	28.2	94	26.7	1	2	112	0.00	29.913 
18:10	28.2	28.2	28.2	94	26.7	0	2	112	0.00	29.912 
18:15	28.2	28.2	28.2	95	27.0	0	2	112	0.00	29.913 
18:20	28.2	28.2	28.2	95	27.0	0	2	112	0.00	29.914 
18:25	28.4	28.4	28.4	95	27.2	0	2	112	0.00	29.915 
18:30	28.4	28.4	28.4	95	27.2	1	2	112	0.00	29.917 
18:35	28.4	28.4	28.4	95	27.2	0	2	112	0.00	29.923 
18:40	28.4	28.4	28.4	95	27.2	0	2	112	0.00	29.923 
18:45	28.4	28.4	28.4	95	27.2	0	2	112	0.00	29.927 
18:50	28.4	28.4	28.4	94	26.9	1	2	112	0.00	29.928 
18:55	28.4	28.4	28.4	94	26.9	0	2	112	0.00	29.929 
19:00	28.4	28.4	28.4	94	26.9	0	2	112	0.00	29.929 
19:05	28.4	28.4	28.4	94	26.9	0	0	---	0.00	29.930 
19:10	28.4	28.4	28.4	94	26.9	1	2	112	0.00	29.929 
19:15	28.4	28.4	28.4	94	26.9	0	1	112	0.00	29.928 
19:20	28.4	28.4	28.4	94	26.9	0	1	112	0.00	29.928 
19:25	28.4	28.4	28.4	94	26.9	1	2	112	0.00	29.927 
19:30	28.4	28.4	28.4	94	26.9	1	2	112	0.00	29.924 
19:35	28.4	28.4	28.4	94	26.9	1	2	112	0.00	29.922 
19:40	28.4	28.4	28.4	94	26.9	1	3	112	0.00	29.919 
19:45	28.4	28.4	28.4	94	26.9	1	4	90	0.00	29.917 
19:50	28.4	28.4	28.4	94	26.9	1	2	90	0.00	29.916 
19:55	28.4	28.4	28.4	94	26.9	1	2	90	0.00	29.916 
20:00	28.2	28.2	28.2	94	26.7	1	2	90	0.00	29.915 
20:05	28.2	28.2	28.2	94	26.7	1	2	90	0.00	29.917 
20:10	28.2	28.2	28.2	94	26.7	1	3	90	0.00	29.918 
20:15	28.2	28.2	28.2	94	26.7	0	2	90	0.00	29.918 
20:20	28.2	28.2	28.2	94	26.7	1	3	90	0.00	29.919 
20:25	28.2	28.2	28.2	94	26.7	0	1	90	0.00	29.917 
20:30	28.2	28.2	28.2	94	26.7	0	2	90	0.00	29.916 
20:35	28.2	28.2	28.2	94	26.7	1	2	90	0.00	29.915 
20:40	28.2	28.2	28.2	94	26.7	0	2	90	0.00	29.913 
20:45	28.2	28.2	28.2	94	26.7	1	2	90	0.00	29.911 
20:50	28.2	28.2	28.2	94	26.7	0	1	90	0.00	29.909 
20:55	28.2	28.2	28.2	94	26.7	0	1	90	0.00	29.907 
21:00	28.2	28.2	28.2	94	26.7	1	2	90	0.00	29.904 
21:05	28.2	28.2	28.2	94	26.7	0	2	90	0.00	29.901 
21:10	28.2	28.2	28.2	94	26.7	0	1	90	0.00	29.902 
21:15	28.2	28.2	28.2	95	27.0	0	1	90	0.00	29.900 
21:20	28.2	28.2	28.2	95	27.0	0	1	90	0.00	29.899 
21:25	28.2	28.2	28.2	95	27.0	0	1	90	0.00	29.900 
21:30	28.2	28.2	28.2	95	27.0	0	1	90	0.00	29.900 
21:35	28.2	28.2	28.2	95	27.0	0	1	90	0.00	29.900 
21:40	28.4	28.4	28.4	95	27.2	0	1	90	0.00	29.899 
21:45	28.4	28.4	28.4	95	27.2	0	1	90	0.00	29.898 
21:50	28.2	28.2	28.2	95	27.0	1	2	90	0.00	29.898 
21:55	28.2	28.2	28.2	95	27.0	1	2	90	0.00	29.898 
22:00	28.2	28.2	28.2	95	27.0	0	2	90	0.00	29.898 
22:05	28.2	28.2	28.2	95	27.0	0	2	90	0.00	29.898 
22:10	28.2	28.2	28.2	95	27.0	0	1	90	0.00	29.900 
22:15	28.2	28.2	28.2	95	27.0	0	1	90	0.00	29.903 
22:20	28.2	28.2	28.2	95	27.0	0	1	90	0.00	29.901 
22:25	28.2	28.2	28.2	95	27.0	0	1	90	0.00	29.903 
22:30	28.2	28.2	28.2	95	27.0	0	1	90	0.00	29.901 
22:35	28.2	28.2	28.2	95	27.0	0	1	90	0.00	29.903 
22:40	28.2	28.2	28.2	95	27.0	0	2	90	0.00	29.901 
22:45	28.2	28.2	28.2	95	27.0	0	1	90	0.00	29.901 
22:50	28.2	28.2	28.2	95	27.0	0	1	90	0.00	29.902 
22:55	28.2	28.2	28.2	95	27.0	0	1	90	0.00	29.905 
23:00	28.2	28.2	28.2	95	27.0	0	1	90	0.00	29.904 
23:05	28.2	28.2	28.2	95	27.0	0	1	90	0.00	29.900 
23:10	28.2	28.2	28.2	95	27.0	0	1	90	0.00	29.898 
23:15	28.2	28.2	28.2	95	27.0	0	0	---	0.00	29.898 
23:20	28.2	28.2	28.2	95	27.0	0	0	---	0.00	29.897 
23:25	28.2	28.2	28.2	95	27.0	0	0	---	0.00	29.899 
23:30	28.2	28.2	28.2	95	27.0	0	0	---	0.00	29.899 
23:35	28.2	28.2	28.2	95	27.0	0	0	---	0.00	29.900 
23:40	28.2	28.2	28.2	95	27.0	0	0	---	0.00	29.902 
23:45	28.2	28.2	28.2	95	27.0	0	1	90	0.00	29.904 
23:50	28.2	28.2	28.2	95	27.0	0	1	90	0.00	29.905 
23:55	28.2	28.2	28.2	95	27.0	0	0	---	0.00	29.907 

CoCoRaHS
IN-AL-39
A2 Web Hosting
Creative Commons License
GoDaddy
Look for:

loaded 2017-12-11 14:30:21 • last modified 2010-11-18 10:43:29
Privacy PolicyDisclaimer
• wx.awcolley.com is powered by PmWiki v.2002016 •
• all content (unless otherwise noted) © 2017 A W Colley